Hourly Data Report for January 11, 2018

All times are specified in Local Standard Time (LST). Add 1 hour to adjust for Daylight Saving Time where and when it is observed.

REVELSTOKE A
BRITISH COLUMBIA

50°58'00.000" N
118°11'00.000" W
444.70 m
1176745
71685
YRV

Download Data

Hourly Data (January 2018)
Hourly Data Report for January 11, 2018
Temp Definition
°C
Dew Point Temp Definition
°C
Rel Hum Definition
%
Wind Dir Definition
10's deg

Wind Spd Definition
km/h
Visibility Definition
km
Stn Press Definition
kPa
Hmdx Definition


Wind Chill Definition


Weather Definition


TIME
00:00 Legend Double Dagger -5.7 -8.9 78 32 17 16.1 96.64   -12 LegendNANA
01:00 Legend Double Dagger -6.2 -9.6 77 33 11 16.1 96.73   -11 LegendNANA
02:00 Legend Double Dagger -6.5 -9.6 79 31 8 16.1 96.79   -10 LegendNANA
03:00 Legend Double Dagger -7.3 -10.5 78 31 17 16.1 96.81   -14 LegendNANA
04:00 Legend Double Dagger -8.0 -11.0 79 32 15 16.1 96.85   -14 LegendNANA
05:00 Legend Double Dagger -8.8 -11.3 82   0 16.1 96.84     LegendNANA
06:00 Legend Double Dagger -8.6 -11.3 81 30 9 16.1 96.83   -13 LegendNANA
07:00 Legend Double Dagger -9.1 -11.2 85 LegendMM 4 16.1 96.80   -11 LegendNANA
08:00 Legend Double Dagger -8.9 -11.1 84   0 16.1 96.82     LegendNANA
09:00 Legend Double Dagger -8.8 -10.7 86   0 16.1 96.82     LegendNANA
10:00 Legend Double Dagger -8.1 -11.0 80 33 8 16.1 96.78   -12 LegendNANA
11:00 Legend Double Dagger -7.8 -11.3 76 33 9 16.1 96.69   -12 LegendNANA
12:00 Legend Double Dagger -7.5 -11.0 76 33 11 16.1 96.54   -13 LegendNANA
13:00 Legend Double Dagger -7.2 -11.3 73   0 16.1 96.45     LegendNANA
14:00 Legend Double Dagger -7.0 -10.6 76 34 8 16.1 96.40   -11 Snow
15:00 Legend Double Dagger -6.8 -10.5 75 LegendMM 4 16.1 96.37   -9 Snow
16:00 Legend Double Dagger -6.9 -10.6 75 32 11 16.1 96.36   -12 Snow
17:00 Legend Double Dagger -6.8 -10.4 76   0 16.1 96.38     LegendNANA
18:00 Legend Double Dagger -6.9 -11.0 73 31 17 16.1 96.42   -13 LegendNANA
19:00 Legend Double Dagger -6.8 -10.4 76 LegendMM 4 16.1 96.44   -9 LegendNANA
20:00 Legend Double Dagger -6.9 -10.6 75 33 13 16.1 96.46   -12 LegendNANA
21:00 Legend Double Dagger -6.6 -11.6 68 LegendMM 8 16.1 96.54   -10 LegendNANA
22:00 Legend Double Dagger -6.5 -10.9 71 LegendMM 4 16.1 96.66   -8 LegendNANA
23:00 Legend Double Dagger -6.4 -10.5 73 33 9 16.1 96.75   -11 LegendNANA

Notes on Data Quality.

Legend

  • E = Estimated
  • M = Missing
  • NA = Not Available
  • ‡ = Partner data that is not subject to review by the National Climate Archives
Date modified: